Miscellaneous Local Product
Issued by NWS Hastings, NE

Home | Current Version | Previous Version | Text Only | Print | Product List | Glossary On
Versions: 1 2 3 4 5 6 7 8 9 10 11 12 13 14 15 16 17 18 19 20 21 22 23 24 25 26 27 28 29 30 31 32 33 34 35 36 37 38 39 40 41 42 43 44 45 46 47 48 49 50
000
AXUS43 KGID 291402
MISGRI

GID CWA HOURLY WEATHER ROUNDUP
NATIONAL WEATHER SERVICE HASTINGS NE
800 AM CST THU JAN 29 2015

NOTE: "FAIR" INDICATES FEW OR NO CLOUDS BELOW 12,000 FEET WITH NO
SIGNIFICANT WEATHER AND/OR OBSTRUCTIONS TO VISIBILITY.

...SOUTH CENTRAL NEBRASKA...

CITY           SKY/WX    TMP DP  RH WIND       PRES   REMARKS
GRAND ISLAND   CLOUDY    36  26  67 N21G28    30.36R WCI  25
HASTINGS       CLOUDY    36  24  62 NW24G32   30.36R WCI  24
KEARNEY        CLOUDY    36  23  60 N24G32    30.39R WCI  24
ORD            CLOUDY    35  24  64 N25G36    30.36R WCI  23
YORK           CLOUDY    37  28  70 N24G31    30.31R WCI  26
AURORA         CLOUDY    37  27  66 N25       30.34R WCI  25
LEXINGTON      CLOUDY    36  24  63 N21       30.40R WCI  25
HOLDREGE       CLOUDY    36  23  59 N18G28    30.38R WCI  26
HEBRON         CLOUDY    39  26  59 N20G30    30.34R WCI  29

...NEBRASKA PANHANDLE...

CITY           SKY/WX    TMP DP  RH WIND       PRES   REMARKS
CHADRON        CLEAR     24  21  88 W3        30.47R
ALLIANCE       CLEAR     19  17  92 CALM      30.44R
SCOTTSBLUFF    CLEAR     29  24  82 W9        30.46R WCI  20
SIDNEY         CLEAR     26  20  77 NW8       30.43R WCI  18

...WESTERN AND NORTH CENTRAL NEBRASKA...

CITY           SKY/WX    TMP DP  RH WIND       PRES   REMARKS
VALENTINE      CLOUDY    35  24  64 NW15G24   30.41R WCI  25
AINSWORTH      CLOUDY    33  25  70 NW21      30.39R WCI  22
ONEILL         CLOUDY    35  29  76 NW17G23   30.36R WCI  25
BROKEN BOW     CLOUDY    36  24  62 N25G36    30.38R WCI  24
IMPERIAL       PTCLDY    29  23  78 NW9       30.46R WCI  20
NORTH PLATTE   CLEAR     23  21  92 NW7       30.43R WCI  15
MCCOOK         CLEAR     28  23  81 W10       30.45R WCI  19

...EASTERN NEBRASKA...

CITY           SKY/WX    TMP DP  RH WIND       PRES   REMARKS
NORFOLK        CLOUDY    36  29  75 N24       30.32R WCI  24
SO SIOUX CITY  CLOUDY    34  27  75 N28G38    30.27R WCI  21
COLUMBUS       CLOUDY    36  25  64 N26G35    30.33R WCI  23
ALBION         MOCLDY    36  26  66 N21G28    30.32R WCI  24
OMAHA EPPLEY   CLOUDY    36  27  69 N22G29    30.27R WCI  25
OFFUTT AFB     CLOUDY    37  28  70 NW15      30.27R WCI  28
MILLARD        CLOUDY    37  28  70 NW17G26   30.27R WCI  28
LINCOLN        CLOUDY    38  29  70 N22G28    30.32R WCI  27
NEBRASKA CITY  CLOUDY    37  24  60 N21G32    30.25R WCI  26
BEATRICE       CLOUDY    37  28  70 N25G35    30.30R WCI  26
FALLS CITY     CLOUDY    38  26  62 NW18G30   30.26R WCI  28

...NORTHERN KANSAS...

CITY           SKY/WX    TMP DP  RH WIND       PRES   REMARKS
GOODLAND       CLOUDY    30  26  85 N13       30.44R WCI  20
HILL CITY      CLEAR     30  25  81 W12       30.44R WCI  20
NORTON         SUNNY     28  21  74 W12       30.42R WCI  18
PHILLIPSBURG   PTCLDY    34  27  75 W9        30.42R WCI  26
SMITH CENTER   PTCLDY    36  25  64 N25       30.39R WCI  23
BELOIT         CLOUDY    37  28  70 NW10      30.36R WCI  30
HAYS           FAIR      32  21  64 NW9       30.42R WCI  24
RUSSELL        FAIR      34  26  72 NW17      30.39R WCI  23
CONCORDIA      CLOUDY    39  27  62 N26G36    30.34R WCI  28
SALINA         CLOUDY    41  29  62 N21G28    30.35R
TOPEKA         CLOUDY    40  28  62 N17G28    30.27R WCI  31



USA.gov is the U.S. government's official web portal to all federal, state and local government web resources and services.